Weather History for Athens, OH

Change the Weather History Date:

Monday, October 22, 2012

  Actual Average (KPKB) Record (KPKB)
Temperature  
Mean Temperature 56 °F 53 °F  
Max Temperature 77 °F 65 °F 88 °F (1979)
Min Temperature 36 °F 42 °F 23 °F (1930)
Degree Days  
Heating Degree Days 8 12  
Cooling Degree Days 0 0  
Growing Degree Days 6 (Base 50)    
Moisture  
Dew Point 45 °F    
Average Humidity 67    
Maximum Humidity 95    
Minimum Humidity 35    
Precipitation  
Precipitation 0.00 in 0.09 in 0.13 in (2013)
Sea Level Pressure  
Sea Level Pressure 30.13 in    
Wind  
Wind Speed 2 mph (SSW)    
Max Wind Speed 12 mph    
Max Gust Speed 18 mph    
Visibility 10 miles    
Events      
T = Trace of Precipitation, MM = Missing Value Source: NWS Daily Summary

Daily Weather History Graph

Daily Weather History Graph

Search for Another Location

Airport:

Trip Planner

Search our weather history database for the weather conditions in past years. The results will help you decide how hot, cold, wet, or windy it might be!

Date:

Astronomy

Oct. 22, 2012 Rise Set
Actual Time 7:46 AM EDT 6:39 PM EDT
Civil Twilight 7:19 AM EDT 7:06 PM EDT
Nautical Twilight 6:47 AM EDT 7:38 PM EDT
Astronomical Twilight 6:16 AM EDT 8:09 PM EDT
Moon 2:44 PM EDT (10/22) 12:34 AM EDT (10/22)
Length of Visible Light 11h 47m
Length of Day
10h 53m
First Quarter, 56% of the Moon is Illuminated
Oct 22
First Quarter
Oct 29
Full
Nov 6
Last Quarter
Nov 13
New
Nov 20
First Quarter

Hourly Weather History & Observations

Time (EDT) Temp. Dew Point Humidity Pressure Visibility Wind Dir Wind Speed Gust Speed Precip Events Conditions
12:15 AM 39.9 °F 37.8 °F 92% 30.14 in 10.0 mi Calm Calm - N/A   Clear
1:15 AM 39.6 °F 37.4 °F 92% 30.14 in 10.0 mi Calm Calm - N/A   Clear
1:35 AM 39.9 °F 37.8 °F 92% 30.14 in 10.0 mi Calm Calm - N/A   Clear
1:55 AM 38.7 °F 36.7 °F 93% 30.14 in 10.0 mi Calm Calm - N/A   Clear
2:15 AM 38.7 °F 36.9 °F 93% 30.14 in 10.0 mi Calm Calm - N/A   Clear
2:35 AM 39.2 °F 37.4 °F 93% 30.14 in 7.0 mi Calm Calm - N/A   Clear
3:15 AM 38.5 °F 36.9 °F 94% 30.14 in 10.0 mi Calm Calm - N/A   Clear
4:35 AM 37.0 °F 35.6 °F 95% 30.15 in 10.0 mi Calm Calm - N/A   Clear
5:15 AM 37.6 °F 36.0 °F 94% 30.16 in 10.0 mi Calm Calm - N/A   Clear
5:55 AM 37.4 °F 35.6 °F 93% 30.16 in 10.0 mi Calm Calm - N/A   Clear
6:35 AM 36.1 °F 34.7 °F 94% 30.17 in 7.0 mi Calm Calm - N/A   Clear
7:35 AM 37.4 °F 35.8 °F 94% 30.18 in 10.0 mi Calm Calm - N/A   Mostly Cloudy
7:55 AM 37.6 °F 35.8 °F 93% 30.18 in 10.0 mi Calm Calm - N/A   Scattered Clouds
8:55 AM 38.8 °F 36.9 °F 93% 30.18 in 10.0 mi Calm Calm - N/A   Clear
9:35 AM 43.5 °F 40.6 °F 90% 30.19 in 10.0 mi Calm Calm - N/A   Clear
9:55 AM 46.0 °F 42.4 °F 87% 30.19 in 10.0 mi Calm Calm - N/A   Clear
10:55 AM 57.2 °F 45.0 °F 64% 30.18 in 10.0 mi SSW 3.5 mph - N/A   Scattered Clouds
11:15 AM 58.8 °F 45.3 °F 61% 30.18 in 10.0 mi SW 3.5 mph - N/A   Scattered Clouds
11:35 AM 61.2 °F 45.7 °F 57% 30.17 in 10.0 mi SSW 3.5 mph - N/A   Clear
11:55 AM 64.4 °F 46.6 °F 52% 30.17 in 10.0 mi SSW 3.5 mph - N/A   Clear
12:15 PM 66.0 °F 46.6 °F 49% 30.17 in 10.0 mi SSW 3.5 mph - N/A   Clear
12:55 PM 69.4 °F 48.0 °F 46% 30.16 in 10.0 mi South 3.5 mph - N/A   Clear
1:15 PM 70.9 °F 48.0 °F 44% 30.15 in 10.0 mi SW 3.5 mph - N/A   Clear
1:35 PM 71.8 °F 47.7 °F 42% 30.14 in 10.0 mi SSW 3.5 mph - N/A   Clear
2:15 PM 74.3 °F 47.7 °F 39% 30.12 in 10.0 mi South 4.6 mph - N/A   Clear
2:35 PM 74.7 °F 46.8 °F 37% 30.11 in 10.0 mi South 8.1 mph - N/A   Clear
2:55 PM 75.9 °F 46.6 °F 35% 30.11 in 10.0 mi South 6.9 mph - N/A   Clear
3:55 PM 77.9 °F 48.2 °F 35% 30.10 in 10.0 mi SSW 9.2 mph - N/A   Clear
4:15 PM 77.5 °F 47.8 °F 35% 30.09 in 10.0 mi SSW 11.5 mph 18.4 mph N/A   Clear
5:15 PM 77.4 °F 48.9 °F 37% 30.09 in 10.0 mi WSW 3.5 mph - N/A   Clear
5:35 PM 75.7 °F 49.8 °F 40% 30.09 in 10.0 mi SSW 4.6 mph - N/A   Clear
6:55 PM 69.8 °F 50.9 °F 51% 30.10 in 10.0 mi Calm Calm - N/A   Scattered Clouds
7:15 PM 66.4 °F 51.4 °F 59% 30.09 in 10.0 mi South 3.5 mph - N/A   Scattered Clouds
7:35 PM 66.6 °F 52.2 °F 60% 30.10 in 10.0 mi Calm Calm - N/A   Mostly Cloudy
7:55 PM 66.4 °F 52.5 °F 61% 30.10 in 10.0 mi Calm Calm - N/A   Mostly Cloudy
8:15 PM 66.6 °F 51.6 °F 59% 30.10 in 10.0 mi South 3.5 mph - N/A   Mostly Cloudy
8:55 PM 65.8 °F 52.0 °F 61% 30.09 in 10.0 mi South 3.5 mph - N/A   Mostly Cloudy
9:15 PM 66.6 °F 50.5 °F 56% 30.09 in 10.0 mi SSW 3.5 mph - N/A   Scattered Clouds
10:15 PM 65.8 °F 50.0 °F 57% 30.09 in 10.0 mi SSW 4.6 mph - N/A   Clear
10:35 PM 65.5 °F 50.2 °F 58% 30.08 in 10.0 mi South 6.9 mph - N/A   Clear
10:55 PM 63.0 °F 50.4 °F 63% 30.09 in 10.0 mi WSW 5.8 mph - N/A   Clear
11:15 PM 60.3 °F 50.4 °F 70% 30.09 in 10.0 mi Calm Calm - N/A   Clear
11:35 PM 60.1 °F 50.2 °F 70% 30.09 in 10.0 mi Calm Calm - N/A   Clear